When you browse on this site, cookies collect data to enhance your experience and personalize the content and advertising you see.
Visit our Privacy Policy to learn more. By continuing to use the site, you agree to this use of cookies and data.
  • In United Kingdom
  • List of Countries
  • For 7 days
  • Water Temperature
  • Weather Map
  • Weather Widgets
  • user-avatar
    Login

    Hourly Weather Hadım

    Today, 24 August, Saturday

    Time Temperature Precipitation Wind Pressure Humidity
    00:00 +17°C° 0 mm 3 mps 626 mmHg 65%
    01:00 +17°C° 0 mm 3 mps 626 mmHg 66%
    02:00 +17°C° 0 mm 3 mps 626 mmHg 68%
    03:00 +16°C° 0 mm 3 mps 626 mmHg 71%
    04:00 +16°C° 0 mm 3 mps 626 mmHg 74%
    05:00 +14°C° 0 mm 3 mps 626 mmHg 77%
    06:00 +16°C° 0 mm 3 mps 626 mmHg 69%
    07:00 +18°C° 0 mm 4 mps 627 mmHg 61%
    08:00 +19°C° 0 mm 5 mps 628 mmHg 53%
    09:00 +21°C° 0 mm 5 mps 628 mmHg 49%
    10:00 +22°C° 0 mm 5 mps 629 mmHg 46%
    11:00 +23°C° 0 mm 5 mps 629 mmHg 42%
    12:00 +25°C° 0 mm 5 mps 629 mmHg 40%
    13:00 +26°C° 0 mm 5 mps 629 mmHg 39%
    14:00 +27°C° 0 mm 5 mps 629 mmHg 37%
    15:00 +26°C° 0 mm 6 mps 629 mmHg 38%
    16:00 +26°C° 0 mm 6 mps 629 mmHg 39%
    17:00 +24°C° 0 mm 6 mps 629 mmHg 41%
    18:00 +23°C° 0 mm 5 mps 628 mmHg 44%
    19:00 +22°C° 0 mm 4 mps 628 mmHg 48%
    20:00 +21°C° 0 mm 3 mps 627 mmHg 52%
    21:00 +20°C° 0 mm 3 mps 627 mmHg 53%
    22:00 +19°C° 0 mm 3 mps 627 mmHg 54%
    23:00 +19°C° 0 mm 2 mps 626 mmHg 55%

    Tomorrow, 25 August, Sunday

    Time Temperature Precipitation Wind Pressure Humidity
    00:00 +18°C° 0 mm 2 mps 626 mmHg 57%
    01:00 +18°C° 0 mm 2 mps 626 mmHg 60%
    02:00 +17°C° 0 mm 2 mps 625 mmHg 62%
    03:00 +17°C° 0 mm 2 mps 625 mmHg 65%
    04:00 +16°C° 0 mm 2 mps 625 mmHg 69%
    05:00 +16°C° 0 mm 2 mps 625 mmHg 72%
    06:00 +17°C° 0 mm 2 mps 626 mmHg 68%
    07:00 +19°C° 0 mm 2 mps 627 mmHg 63%
    08:00 +20°C° 0 mm 3 mps 627 mmHg 58%
    09:00 +23°C° 0 mm 2 mps 628 mmHg 52%
    10:00 +24°C° 0 mm 2 mps 629 mmHg 45%
    11:00 +26°C° 0 mm 2 mps 629 mmHg 38%
    12:00 +27°C° 0.1 mm 2 mps 629 mmHg 36%
    13:00 +27°C° 0.1 mm 2 mps 629 mmHg 33%
    14:00 +28°C° 0.1 mm 2 mps 629 mmHg 30%
    15:00 +27°C° 0.1 mm 2 mps 629 mmHg 34%
    16:00 +26°C° 0.1 mm 3 mps 628 mmHg 38%
    17:00 +24°C° 0.1 mm 3 mps 627 mmHg 43%
    18:00 +23°C° 0.1 mm 2 mps 627 mmHg 45%
    19:00 +21°C° 0.1 mm 2 mps 627 mmHg 48%
    20:00 +21°C° 0.1 mm 2 mps 627 mmHg 51%
    21:00 +20°C° 0 mm 2 mps 627 mmHg 52%
    22:00 +19°C° 0 mm 2 mps 627 mmHg 53%
    23:00 +19°C° 0 mm 2 mps 626 mmHg 54%

    Day after tomorrow, 26 August, Monday

    Time Temperature Precipitation Wind Pressure Humidity
    00:00 +18°C° 0 mm 2 mps 626 mmHg 56%
    01:00 +18°C° 0 mm 2 mps 626 mmHg 58%
    02:00 +18°C° 0 mm 2 mps 625 mmHg 59%
    03:00 +17°C° 0.1 mm 2 mps 625 mmHg 64%
    04:00 +17°C° 0.1 mm 2 mps 625 mmHg 68%
    05:00 +16°C° 0.1 mm 2 mps 625 mmHg 73%
    06:00 +18°C° 0 mm 2 mps 626 mmHg 67%
    07:00 +20°C° 0 mm 2 mps 627 mmHg 61%
    08:00 +21°C° 0 mm 2 mps 628 mmHg 54%
    09:00 +24°C° 0 mm 2 mps 628 mmHg 48%
    10:00 +25°C° 0 mm 2 mps 629 mmHg 43%
    11:00 +26°C° 0 mm 2 mps 629 mmHg 37%
    12:00 +26°C° 0.1 mm 2 mps 629 mmHg 37%
    13:00 +26°C° 0.1 mm 3 mps 629 mmHg 38%
    14:00 +26°C° 0.1 mm 3 mps 629 mmHg 39%
    15:00 +25°C° 0.3 mm 3 mps 628 mmHg 43%
    16:00 +22°C° 0.3 mm 3 mps 627 mmHg 48%
    17:00 +21°C° 0.3 mm 3 mps 627 mmHg 52%
    18:00 +20°C° 0 mm 3 mps 627 mmHg 52%
    19:00 +20°C° 0 mm 2 mps 627 mmHg 51%
    20:00 +20°C° 0 mm 1 mps 627 mmHg 51%
    21:00 +20°C° 0 mm 1 mps 627 mmHg 52%
    22:00 +20°C° 0 mm 1 mps 627 mmHg 53%
    23:00 +18°C° 0 mm 2 mps 626 mmHg 53%

    27 August, Tuesday

    Time Temperature Precipitation Wind Pressure Humidity
    00:00 +18°C° 0 mm 2 mps 626 mmHg 55%
    01:00 +18°C° 0 mm 1 mps 626 mmHg 56%
    02:00 +18°C° 0 mm 1 mps 625 mmHg 58%
    03:00 +17°C° 0 mm 2 mps 625 mmHg 60%
    04:00 +16°C° 0 mm 2 mps 625 mmHg 63%
    05:00 +16°C° 0 mm 2 mps 625 mmHg 66%
    06:00 +18°C° 0 mm 2 mps 626 mmHg 60%
    07:00 +19°C° 0 mm 2 mps 627 mmHg 54%
    08:00 +21°C° 0 mm 2 mps 628 mmHg 48%
    09:00 +24°C° 0 mm 3 mps 629 mmHg 43%
    10:00 +25°C° 0 mm 3 mps 629 mmHg 37%
    11:00 +26°C° 0 mm 4 mps 630 mmHg 32%
    12:00 +27°C° 0 mm 4 mps 630 mmHg 30%
    13:00 +27°C° 0 mm 4 mps 630 mmHg 28%
    14:00 +28°C° 0 mm 4 mps 630 mmHg 27%
    15:00 +27°C° 0 mm 4 mps 629 mmHg 27%
    16:00 +27°C° 0 mm 5 mps 629 mmHg 28%
    17:00 +27°C° 0 mm 5 mps 629 mmHg 29%
    18:00 +25°C° 0 mm 4 mps 628 mmHg 32%
    19:00 +22°C° 0 mm 3 mps 628 mmHg 35%
    20:00 +20°C° 0 mm 3 mps 627 mmHg 37%
    21:00 +20°C° 0 mm 2 mps 627 mmHg 39%
    22:00 +19°C° 0 mm 2 mps 627 mmHg 40%
    23:00 +19°C° 0 mm 1 mps 626 mmHg 41%

    28 August, Wednesday

    Time Temperature Precipitation Wind Pressure Humidity
    00:00 +19°C° 0 mm 1 mps 626 mmHg 42%
    01:00 +17°C° 0 mm 2 mps 626 mmHg 43%
    02:00 +17°C° 0 mm 2 mps 626 mmHg 44%
    03:00 +17°C° 0 mm 2 mps 625 mmHg 45%
    04:00 +16°C° 0 mm 2 mps 625 mmHg 46%
    05:00 +16°C° 0 mm 2 mps 625 mmHg 47%
    06:00 +18°C° 0 mm 2 mps 626 mmHg 43%
    07:00 +20°C° 0 mm 3 mps 627 mmHg 39%
    08:00 +22°C° 0 mm 3 mps 628 mmHg 36%
    09:00 +24°C° 0 mm 3 mps 628 mmHg 32%
    10:00 +25°C° 0 mm 4 mps 629 mmHg 29%
    11:00 +26°C° 0 mm 5 mps 629 mmHg 26%
    12:00 +27°C° 0 mm 5 mps 629 mmHg 24%
    13:00 +27°C° 0 mm 5 mps 629 mmHg 23%
    14:00 +28°C° 0 mm 5 mps 629 mmHg 21%
    15:00 +27°C° 0 mm 5 mps 629 mmHg 23%
    16:00 +27°C° 0 mm 6 mps 628 mmHg 24%
    17:00 +26°C° 0 mm 6 mps 628 mmHg 25%
    18:00 +23°C° 0 mm 5 mps 627 mmHg 29%
    19:00 +21°C° 0 mm 4 mps 627 mmHg 33%
    20:00 +19°C° 0 mm 2 mps 626 mmHg 37%
    21:00 +19°C° 0 mm 2 mps 626 mmHg 38%
    22:00 +18°C° 0 mm 2 mps 626 mmHg 39%
    23:00 +18°C° 0 mm 2 mps 626 mmHg 41%

    29 August, Thursday

    Time Temperature Precipitation Wind Pressure Humidity
    00:00 +17°C° 0 mm 2 mps 626 mmHg 42%
    01:00 +17°C° 0 mm 2 mps 625 mmHg 44%
    02:00 +16°C° 0 mm 2 mps 625 mmHg 45%
    03:00 +16°C° 0 mm 2 mps 625 mmHg 49%
    04:00 +15°C° 0 mm 2 mps 625 mmHg 54%
    05:00 +15°C° 0 mm 2 mps 625 mmHg 58%
    06:00 +17°C° 0 mm 2 mps 625 mmHg 54%
    07:00 +19°C° 0 mm 2 mps 626 mmHg 49%
    08:00 +20°C° 0 mm 2 mps 627 mmHg 44%
    09:00 +22°C° 0 mm 3 mps 628 mmHg 38%
    10:00 +24°C° 0 mm 3 mps 628 mmHg 33%
    11:00 +26°C° 0 mm 3 mps 629 mmHg 27%
    12:00 +26°C° 0 mm 4 mps 629 mmHg 26%
    13:00 +27°C° 0 mm 4 mps 629 mmHg 24%
    14:00 +27°C° 0 mm 4 mps 629 mmHg 23%
    15:00 +27°C° 0 mm 4 mps 628 mmHg 24%
    16:00 +26°C° 0 mm 4 mps 628 mmHg 24%
    17:00 +26°C° 0 mm 4 mps 628 mmHg 25%
    18:00 +24°C° 0 mm 3 mps 627 mmHg 29%
    19:00 +21°C° 0 mm 2 mps 626 mmHg 32%
    20:00 +20°C° 0 mm 1 mps 626 mmHg 35%
    21:00 +19°C° 0 mm 1 mps 625 mmHg 36%
    22:00 +19°C° 0 mm 1 mps 625 mmHg 36%
    23:00 +18°C° 0 mm 1 mps 625 mmHg 36%
    Show more